Theta_e
294 293 293 293 293 293 292 292 291 292 291 291 290 290 289 289 290 291 291 291 290 291 291 291 292 293 292 293 293 293 292 291 287 289 292 293 293 293 294 295 293 294 296
293 293 293 293 292 292 291 291 291 290 290 290 289 289 288 288 289 289 289 290 289 289 290 290 290 292 291 292 292 291 291 292 289 286 289 290 291 293 293 292 293 294 295
293 292 292 292 292 291 291 290 290 289 289 289 289 288 287 288 289 289 289 289 289 289 289 289 289 290 290 290 291 290 291 291 290 287 287 290 290 291 289 290 291 293 294
291 291 291 291 291 291 290 289 290 290 289 288 288 287 287 287 289 289 289 289 289 289 290 290 290 290 290 290 290 289 290 289 288 287 287 286 287 288 287 287 287 289 290
290 290 291 291 291 290 289 289 290 289 288 288 287 287 287 287 288 288 288 288 288 289 289 290 290 289 288 289 289 289 289 288 287 286 285 285 285 285 285 286 286 288 289
290 290 291 290 289 289 289 289 289 288 287 287 286 286 286 287 290 290 289 288 288 287 287 289 290 288 290 290 291 291 291 288 287 286 285 284 285 286 286 286 286 285 285
289 290 289 289 288 289 289 288 287 286 286 285 284 285 285 286 290 290 288 287 287 288 287 287 288 289 288 289 290 291 290 290 291 289 286 286 286 287 287 286 286 286 286
287 288 288 287 286 286 286 285 285 285 284 283 283 284 286 286 288 288 288 287 287 287 287 287 287 287 288 287 288 287 287 288 288 288 288 286 286 284 284 284 284 287 284
285 285 285 285 284 284 283 285 283 283 285 284 283 284 283 286 287 288 287 286 285 285 286 286 287 286 288 290 288 286 286 287 290 291 288 286 284 283 282 280 282 284 283
284 284 284 283 283 281 282 284 284 284 285 284 284 284 283 283 287 287 287 285 284 284 285 285 285 285 288 289 287 286 285 286 285 284 282 280 279 278 278 277 277 284 283
283 282 281 281 280 280 281 284 283 285 284 284 284 285 284 283 284 287 288 285 284 284 284 284 284 287 288 288 288 287 287 285 283 281 279 278 278 276 276 275 275 277 282
282 281 279 277 280 282 283 283 283 283 283 283 284 283 281 283 285 287 288 288 287 284 284 284 284 287 287 286 285 286 286 283 281 279 277 276 276 276 276 275 274 273 275
280 279 278 278 280 282 282 281 282 282 279 277 279 282 280 281 281 287 288 288 287 285 285 285 286 286 285 283 284 283 282 281 280 277 276 276 277 277 277 276 275 274 272
279 278 279 278 277 278 280 280 278 277 275 278 278 279 280 283 278 279 284 284 284 285 284 283 284 285 285 282 281 280 279 279 278 277 277 278 277 276 274 274 273 273 270
280 280 280 279 279 278 280 279 280 279 281 277 278 277 276 280 278 283 284 284 284 285 284 282 283 278 277 280 279 279 279 279 278 279 274 271 271 272 272 272 271 270 268
281 281 280 280 278 279 278 276 286 287 287 288 288 284 281 286 288 287 287 286 285 286 281 280 280 280 273 277 277 277 278 278 277 275 275 274 269 267 269 271 271 269 268
280 281 280 279 278 276 275 275 273 279 288 288 288 288 288 287 287 287 287 286 285 284 279 279 281 281 272 274 277 277 276 276 275 274 271 267 266 267 268 269 269 267 265
273 276 277 277 278 275 274 274 273 273 272 275 283 287 287 288 288 288 287 285 280 282 278 278 280 277 272 273 276 276 276 274 271 272 274 268 263 265 267 266 264 263 261
275 275 276 273 274 274 273 272 272 270 270 273 272 280 279 286 286 287 287 282 278 279 274 279 279 272 272 273 275 277 275 273 270 268 268 262 261 265 262 262 263 262 261
272 275 273 271 271 270 271 272 270 272 272 274 273 275 271 270 268 268 271 276 279 273 270 273 272 272 272 275 274 272 270 269 265 264 261 261 260 261 262 261 259 259 256
270 270 271 268 268 269 270 272 273 272 273 274 275 272 281 276 276 274 273 274 274 272 272 273 272 273 274 276 274 271 270 266 262 262 262 258 259 260 258 259 258 258 258
268 268 268 269 269 272 274 271 269 268 272 273 273 271 285 275 276 277 274 274 274 274 274 275 275 276 277 276 275 273 270 267 263 261 261 260 260 259 257 259 259 257 256
266 265 266 266 268 271 272 279 280 280 280 280 275 273 270 276 276 277 276 273 272 272 272 274 275 276 277 277 276 274 270 268 267 264 262 261 259 258 259 259 259 257 258
263 263 264 265 266 271 276 278 279 279 279 279 279 280 280 278 277 277 275 272 271 269 272 273 275 275 274 274 273 272 270 267 265 262 262 262 260 259 260 259 258 257 258
267 268 270 272 273 275 275 275 271 273 275 277 278 279 280 281 281 276 273 271 270 270 271 272 273 273 272 271 270 268 267 265 263 261 260 261 260 258 258 258 258 255 256
261 263 266 270 271 273 273 273 273 272 273 275 278 279 279 280 281 281 272 269 269 270 271 272 271 272 270 270 269 267 268 266 262 261 262 261 260 258 258 257 255 257 255
Wind_Speed
7 7 7 6 6 5 4 3 3 2 4 4 4 4 4 4 5 5 6 7 7 7 8 10 9 9 8 8 7 7 8 8 11 10 7 7 11 10 10 11 6 7 9
7 7 7 6 5 4 4 4 4 3 2 1 3 3 4 4 4 5 7 8 8 8 9 10 13 8 10 10 7 10 9 8 8 12 10 8 8 11 8 10 9 9 10
7 7 6 6 6 5 5 4 3 2 1 2 3 4 4 4 5 5 6 8 8 9 9 10 11 11 11 9 8 8 8 7 6 8 10 5 5 5 7 7 8 8 8
7 7 7 7 6 5 5 4 2 2 1 3 3 3 4 4 4 6 6 6 8 9 10 11 12 12 12 10 8 8 8 8 7 8 7 5 6 5 4 7 8 4 7
7 7 7 6 6 6 5 4 3 2 1 2 3 4 4 4 2 5 6 8 9 10 11 11 11 11 14 14 8 8 8 6 6 7 6 5 6 5 6 4 6 7 8
8 7 7 7 7 6 5 4 3 1 2 3 4 5 5 3 7 10 8 8 9 10 11 10 10 10 12 15 16 17 12 7 6 5 6 6 8 6 5 6 6 4 4
8 7 7 7 6 6 5 4 3 1 1 2 3 5 5 5 10 9 12 7 8 9 11 9 9 6 10 10 10 12 11 11 13 9 9 8 8 6 6 8 7 6 5
7 7 7 7 6 6 5 3 1 1 0 2 4 4 5 7 11 12 13 7 7 10 9 9 9 9 9 9 7 6 5 7 7 6 6 4 5 6 5 6 9 8 0
8 7 7 7 6 5 5 4 3 2 2 3 4 5 5 5 11 11 11 7 7 11 10 8 8 8 12 15 5 5 6 6 6 9 4 8 11 11 11 6 5 4 2
9 8 6 6 6 5 5 5 4 2 4 2 5 7 7 6 8 9 9 4 7 8 10 9 9 9 16 18 5 5 6 5 2 3 3 5 7 9 12 7 6 2 2
8 7 7 6 6 5 5 4 4 4 3 5 7 7 7 6 4 7 10 4 5 7 9 7 7 15 15 15 15 6 5 2 3 3 2 3 3 5 6 7 8 5 2
8 7 7 6 5 4 6 5 4 3 5 4 6 6 5 6 5 3 9 10 11 5 7 6 7 15 13 11 8 10 9 4 2 2 2 3 4 5 5 6 9 9 9
9 8 6 6 6 7 6 6 4 5 4 3 3 4 4 4 3 5 6 9 10 6 5 10 16 14 10 6 8 10 6 3 2 2 3 2 3 4 3 3 7 8 13
9 7 6 6 5 5 3 4 4 4 3 3 3 4 3 5 3 3 1 4 6 6 6 6 10 10 6 2 3 5 4 3 2 1 2 2 3 3 4 3 3 5 9
7 6 6 5 5 4 4 5 5 5 5 4 5 4 3 5 4 4 6 6 5 7 7 4 5 2 2 1 2 3 2 2 2 2 3 2 3 3 4 3 5 7 7
7 5 4 4 4 4 4 3 9 11 11 13 14 10 4 12 13 14 12 12 13 15 1 4 6 2 2 0 1 2 2 3 2 2 3 4 3 3 4 6 6 7 8
7 6 5 5 4 3 2 3 3 4 10 12 12 13 14 16 15 15 14 13 13 9 2 5 6 2 2 1 1 2 1 2 2 2 3 3 2 3 4 6 6 6 6
3 4 4 4 4 4 4 3 2 3 2 4 4 8 9 12 14 15 14 10 6 4 3 4 5 2 2 2 2 2 2 3 2 2 3 3 2 3 5 6 5 5 3
4 3 4 3 3 4 4 3 3 3 3 4 3 5 5 10 11 11 12 6 6 6 3 3 3 2 2 2 2 3 4 3 2 2 3 3 2 4 5 5 6 7 4
3 4 4 3 3 3 3 4 3 4 4 4 4 5 2 2 1 3 4 5 7 5 3 3 3 3 2 3 3 4 4 3 2 3 3 4 3 3 5 6 5 7 4
2 3 5 2 2 3 3 4 4 4 5 5 5 4 8 5 5 5 4 5 6 5 4 4 3 3 2 4 4 5 4 3 3 3 4 3 3 5 3 5 7 7 7
2 2 2 3 3 3 4 4 3 3 4 5 5 4 13 4 5 7 5 5 5 5 4 4 4 4 4 5 5 6 5 5 4 4 5 5 5 5 4 6 7 6 5
0 1 2 2 3 3 3 4 5 6 7 8 6 4 4 5 6 6 7 5 5 4 4 4 4 5 4 4 4 6 7 8 7 7 7 7 6 5 6 7 8 7 6
2 1 2 4 2 3 5 7 7 10 9 9 9 10 9 7 7 8 6 5 5 4 5 5 5 7 6 4 4 5 4 5 6 6 8 9 8 7 6 7 6 7 8
2 2 5 5 5 5 7 8 4 6 7 8 9 9 10 9 10 6 5 5 5 5 6 6 5 7 9 9 7 7 9 11 8 8 5 7 9 9 7 7 8 5 6
4 4 3 4 5 6 7 8 7 7 8 9 9 9 10 9 9 8 5 5 5 5 6 6 8 9 10 8 9 9 12 14 11 10 8 9 9 8 7 8 8 6 8
Wind_Direction
130 124 126 134 135 134 129 123 100 56 48 33 22 12 2 344 338 327 318 310 299 296 292 290 278 279 273 267 264 264 262 258 272 288 290 282 282 281 282 287 283 294 292
140 139 147 144 147 149 140 113 93 71 51 20 11 357 334 327 328 320 310 299 293 294 294 297 293 286 278 275 273 272 272 267 273 290 295 289 269 278 284 295 294 290 289
141 146 153 160 162 155 135 119 119 124 43 356 24 348 336 329 326 316 303 296 295 290 291 290 286 285 282 280 276 278 275 271 263 287 291 272 281 282 286 284 282 284 283
148 158 166 172 166 152 135 147 143 106 45 20 355 331 311 309 314 307 300 309 301 291 288 285 286 285 283 285 281 279 278 283 284 285 277 277 286 277 263 288 296 280 296
157 171 174 164 153 142 155 154 129 88 27 327 301 300 307 294 304 315 311 302 292 292 292 290 285 284 277 274 278 276 271 270 276 288 279 287 282 284 277 275 283 290 295
167 176 171 155 152 162 161 150 114 73 5 346 342 321 305 289 289 304 316 300 299 295 298 308 302 302 301 284 271 273 271 280 279 271 274 274 276 275 264 263 275 289 300
173 176 163 154 160 166 158 142 133 113 46 350 326 321 319 321 325 332 321 307 299 297 311 306 307 306 299 282 267 263 270 275 270 275 278 277 285 289 291 279 266 244 243
174 169 159 156 157 159 144 132 171 154 257 303 293 308 323 321 327 331 327 315 304 308 307 306 302 307 301 292 273 263 263 264 270 282 271 307 309 310 285 282 282 283 145
177 171 160 156 157 156 158 191 226 178 294 303 311 298 300 301 323 330 334 319 305 309 309 301 300 310 312 329 302 283 282 286 282 305 23 1 350 341 336 308 271 222 199
178 181 164 160 160 173 166 193 220 198 265 264 287 292 283 276 312 329 333 310 310 317 317 314 297 321 332 344 319 291 287 281 322 9 9 7 16 6 6 1 321 252 137
158 156 160 159 165 160 165 181 203 219 251 276 284 287 272 257 267 323 324 314 301 309 318 313 312 322 336 343 7 336 281 133 58 66 30 355 21 26 19 15 12 10 17
154 150 153 156 146 152 178 187 198 198 247 262 286 288 260 252 245 288 315 319 320 311 301 301 303 319 334 341 6 358 8 39 69 73 46 12 23 29 27 28 36 39 35
148 154 154 157 161 168 176 187 194 209 216 221 225 268 280 262 238 262 292 308 309 301 295 293 314 314 327 351 360 9 13 14 15 68 71 39 21 25 41 37 44 52 53
149 149 156 159 171 178 176 176 183 197 216 226 237 249 250 282 261 257 217 305 304 282 283 302 297 300 299 355 32 26 24 25 17 35 64 54 39 34 30 8 51 68 59
137 152 159 166 174 173 202 192 205 213 187 204 231 213 217 266 235 243 304 311 310 300 302 304 290 307 297 305 71 35 26 22 19 21 60 53 35 41 43 42 63 71 85
143 153 168 169 176 182 187 254 239 235 237 242 253 243 250 252 271 278 287 298 308 311 268 297 287 293 288 324 66 75 25 42 35 35 49 66 56 42 62 70 77 82 90
148 160 159 153 163 170 191 192 215 305 255 250 250 252 253 260 267 273 281 292 302 309 241 280 274 278 234 133 118 108 114 57 33 51 74 77 80 80 71 76 79 81 74
140 149 143 164 167 178 174 210 199 201 251 292 264 246 256 265 268 269 274 287 295 248 208 252 285 255 196 180 170 132 130 83 56 57 82 72 66 86 97 90 72 91 79
170 152 155 183 185 194 162 170 211 228 234 250 310 288 265 263 278 266 256 247 261 267 239 239 249 239 188 157 139 134 119 109 102 93 78 88 70 106 92 93 93 77 83
144 183 172 168 179 177 183 192 210 223 235 239 251 253 247 74 315 249 219 208 243 239 227 208 203 201 170 155 132 116 116 112 105 106 106 104 94 100 117 111 100 105 77
125 162 182 162 184 210 206 211 213 215 231 234 236 228 234 205 243 239 225 216 217 215 208 201 180 178 169 167 145 144 140 133 131 127 120 113 110 112 95 97 102 104 113
174 185 164 178 192 206 230 215 211 223 238 248 256 246 258 237 228 248 233 225 215 202 184 179 175 179 187 179 164 150 151 156 149 141 132 123 118 115 108 113 113 112 108
170 213 232 241 240 243 253 249 255 260 267 274 275 265 245 241 228 238 244 216 201 185 173 166 173 171 177 172 158 162 167 176 172 152 144 135 129 127 131 129 130 124 124
316 302 267 252 222 241 254 258 255 256 260 267 270 273 273 260 238 238 231 206 190 184 178 177 187 176 166 174 155 149 145 143 146 151 144 138 134 128 128 125 129 130 131
255 225 236 248 257 258 266 262 250 249 249 253 259 266 270 266 266 237 225 196 184 179 192 179 182 183 179 164 162 151 148 142 141 138 127 126 132 131 132 134 140 128 126
264 255 257 260 255 256 258 262 259 257 260 263 261 254 261 265 264 251 216 195 187 189 189 188 180 182 174 168 159 153 151 144 139 134 131 133 138 137 135 138 138 136 133